Station NBGM3 - 8447627 - New Bedford, Barrier Gate, MA Image indicating link to RSS feed of recent meteorological observations for station NBGM3


Conditions at NBGM3 as of
(7:54 pm EDT)
2354 GMT on 06/13/2024:
     

Click on the graph icon in the table below to see a time series plot of the last five days of that observation.

5-day plot - Wind Direction Wind Direction (WDIR): W ( 260 deg true )
5-day plot - Wind Speed Wind Speed (WSPD): 8.9 kts
5-day plot - Wind Gust Wind Gust (GST): 14.0 kts
5-day plot - Atmospheric Pressure Atmospheric Pressure (PRES):29.99 in
5-day plot - Air Temperature Air Temperature (ATMP): 69.8 °F
5-day plot - Wind Speed at 10 Meters Wind Speed at 10 meters (WSPD10M): 9.7 kts
5-day plot - Wind Speed at 20 Meters Wind Speed at 20 meters (WSPD20M): 9.7 kts
5-day plot -  Wind Speed, Wind Gust and Atmospheric Pressure Combined plot of Wind Speed, Gust, and Air Pressure
NOS Water Level Observation Network Water Level
Previous observations
TIME
(EDT)
5-day plot - Wind Direction
WDIR
 
5-day plot - Wind Speed
WSPD
kts
5-day plot - Wind Gust
GST
kts
5-day plot - Wave Height
WVHT
ft
5-day plot - Dominant Wave Period
DPD
sec
5-day plot - Average Wave Period
APD
sec
5-day plot - Mean Wave Direction
MWD
 
5-day plot - Atmospheric Pressure
PRES
in
5-day plot - Pressure Tendency
PTDY
in
5-day plot - Air Temperature
ATMP
°F
5-day plot - Water Temperature
WTMP
°F
5-day plot - Dew Point
DEWP
°F
5-day plot - Salinity
SAL
psu
5-day plot - Visibility
VIS
nmi
5-day plot - Tide (above MLLW)
TIDE
ft
2024-06-13 07:48 pm W 11.1 15.0----29.99- 69.8-----
2024-06-13 07:42 pm W 11.1 17.1----29.99- 69.8-----
2024-06-13 07:36 pmWSW 12.0 15.9----29.99- 70.2-----
2024-06-13 07:30 pmWSW 12.0 17.1----29.98- 70.2-----
2024-06-13 07:24 pmWSW 14.0 17.1----29.98- 70.3-----
2024-06-13 07:00 pmWSW 15.0 19.0----29.98-0.01------
2024-06-13 06:54 pmWSW 14.0 18.1----29.98-------
2024-06-13 06:48 pmWSW 15.0 20.0----29.99-------
2024-06-13 06:42 pmWSW 14.0 19.0----29.99-------
2024-06-13 06:36 pm W 13.0 17.1----29.99-------
2024-06-13 06:30 pm W 15.9 19.0----29.99- 71.8-----
2024-06-13 06:24 pmWSW 15.9 20.0----29.98- 71.8-----
2024-06-13 06:18 pmWSW 13.0 20.0----29.98- 72.0-----
2024-06-13 06:12 pmWSW 15.0 20.0----29.98- 72.0-----
2024-06-13 06:06 pmWSW 19.0 22.0----29.98- 72.3-----
2024-06-13 06:00 pmWSW 15.0 19.0----29.98-0.03------
2024-06-13 05:54 pmWSW 13.0 21.0----29.98-------
2024-06-13 05:48 pmWSW 19.0 22.9----29.98- 72.5-----
2024-06-13 05:42 pmWSW 14.0 18.1----29.98- 73.0-----
2024-06-13 05:36 pmWSW 14.0 19.0----29.98- 72.9-----
2024-06-13 05:30 pmWSW 17.1 22.0----29.98- 72.5-----
2024-06-13 05:24 pmWSW 17.1 22.0----29.98- 72.5-----
2024-06-13 05:18 pm W 14.0 21.0----29.98-------
2024-06-13 05:12 pm W 14.0 18.1----29.99-------
2024-06-13 05:06 pmWSW 17.1 22.9----29.98-------
2024-06-13 05:00 pmWSW 18.1 21.0----29.98-0.02 72.5-----
2024-06-13 04:54 pm W 14.0 20.0----29.99- 72.9-----
2024-06-13 04:48 pmWSW 13.0 20.0----29.99- 73.0-----
2024-06-13 04:42 pmWSW 15.9 21.0----29.99- 72.9-----
2024-06-13 04:36 pmWSW 13.0 21.0----29.99- 72.7-----
2024-06-13 04:30 pmWSW 13.0 18.1----29.99- 72.9-----
2024-06-13 04:24 pmWSW 14.0 18.1----29.99- 72.5-----
2024-06-13 04:18 pmWSW 14.0 19.0----29.99-------
2024-06-13 04:12 pmWSW 13.0 21.0----29.99-------
2024-06-13 04:06 pmWSW 15.9 20.0----30.00-------
2024-06-13 04:00 pmWSW 14.0 19.0----30.00-0.03 72.7-----
2024-06-13 03:54 pmWSW 17.1 20.0----30.00- 72.3-----
2024-06-13 03:48 pmWSW 14.0 20.0----30.00- 72.3-----
2024-06-13 03:42 pmWSW 19.0 24.1----30.00- 72.5-----
2024-06-13 03:36 pm SW 15.0 21.0----30.00- 72.9-----
2024-06-13 03:30 pmWSW 15.0 21.0----30.00-------
2024-06-13 03:24 pm SW 15.0 19.0----30.01-------
2024-06-13 03:18 pm SW 9.9 15.0----30.01- 73.4-----
2024-06-13 03:12 pm SW 15.0 15.9----30.01- 72.3-----
2024-06-13 03:06 pm SW 13.0 17.1----30.01- 72.5-----
2024-06-13 03:00 pm SW 12.0 17.1----30.01- 72.5-----
2024-06-13 02:54 pmSSW 13.0 15.9----30.01- 72.0-----
2024-06-13 02:48 pmSSW 12.0 17.1----30.01-------
2024-06-13 02:42 pm SW 13.0 18.1----30.01-------
2024-06-13 02:36 pmSSW 15.0 18.1----30.01-------
2024-06-13 02:30 pm SW 18.1 20.0----30.01-------
2024-06-13 02:24 pmSSW 15.9 19.0----30.01-------
2024-06-13 02:18 pmSSW 17.1 19.0----30.01- 71.6-----
2024-06-13 02:12 pm SW 12.0 15.9----30.01- 72.1-----
2024-06-13 02:06 pm SW 13.0 18.1----30.01- 72.3-----
2024-06-13 02:00 pmSSW 15.9 18.1----30.01-0.02------
2024-06-13 01:54 pmSSW 13.0 15.9----30.01-------
2024-06-13 01:48 pmSSW 12.0 19.0----30.01-------
2024-06-13 01:42 pmSSW 14.0 18.1----30.02-------
2024-06-13 01:36 pm SW 14.0 15.0----30.02-------
2024-06-13 01:30 pm--------- 72.5-----
2024-06-13 01:24 pm--------- 72.0-----
2024-06-13 01:18 pmSSW 13.0 15.0----30.02- 72.3-----
2024-06-13 01:12 pm SW 12.0 15.9----30.03- 72.5-----
2024-06-13 01:06 pm SW 13.0 17.1----30.03- 72.3-----
2024-06-13 01:00 pm-------30.03-0.01 72.0-----
2024-06-13 12:54 pm-------30.03- 71.6-----
2024-06-13 12:48 pm SW 13.0 15.0----30.03- 71.2-----
2024-06-13 12:42 pmSSW 13.0 15.9----30.02- 70.7-----
2024-06-13 12:36 pmSSW 12.0 17.1----30.02- 71.1-----
2024-06-13 12:30 pm-------30.03- 70.9-----
2024-06-13 12:24 pm-------30.03- 70.9-----
2024-06-13 12:18 pm SW 12.0 15.9----30.03-------
2024-06-13 12:12 pmSSW 13.0 15.9----30.03-------
2024-06-13 12:06 pmSSW 11.1 14.0----30.03-------
2024-06-13 12:00 pmSSW 12.0 14.0------ 71.6-----
2024-06-13 11:54 amSSW 11.1 13.0------ 72.1-----
2024-06-13 11:48 amSSW 9.9 13.0----30.03-------
2024-06-13 11:42 amSSW 11.1 15.0----30.03-------
2024-06-13 11:36 amSSW 13.0 15.9----30.03-------
2024-06-13 11:30 amSSW 12.0 17.1----30.04-------
2024-06-13 11:24 amSSW 13.0 17.1----30.03-------
2024-06-13 11:18 amSSW 11.1 15.0----30.04- 71.4-----
2024-06-13 11:12 amSSW 12.0 15.9----30.04- 71.2-----
2024-06-13 11:06 amSSW 15.0 19.0----30.04- 70.5-----
2024-06-13 11:00 amSSW 15.0 19.0----30.03-0.01 71.1-----
2024-06-13 10:54 amSSW 15.0 17.1----30.03- 70.7-----
2024-06-13 10:48 amSSW 12.0 15.0----30.03- 72.1-----
2024-06-13 10:42 amSSW 11.1 14.0----30.03- 72.5-----
2024-06-13 10:36 amSSW 12.0 14.0----30.03- 72.0-----
2024-06-13 10:30 amSSW 11.1 14.0----30.03-------
2024-06-13 10:24 amSSW 11.1 13.0----30.03-------
2024-06-13 10:18 amSSW 11.1 15.0----30.03- 72.7-----
2024-06-13 10:12 amSSW 9.9 15.0----30.03- 72.5-----
2024-06-13 10:06 amSSW 8.0 12.0----30.04- 73.2-----
2024-06-13 10:00 amSSW 8.9 11.1----30.04+0.00 73.2-----
2024-06-13 09:54 amSSW 8.9 12.0----30.03- 73.4-----
2024-06-13 09:48 am S 9.9 11.1----30.03- 73.8-----
2024-06-13 09:42 am S 8.9 9.9----30.04- 75.0-----
2024-06-13 09:36 am S 8.0 8.9----30.04- 75.4-----
2024-06-13 09:30 am S 8.0 9.9----30.04- 74.1-----
2024-06-13 09:24 am S 8.0 11.1----30.04- 73.2-----
2024-06-13 09:18 am S 8.9 11.1----30.04- 72.3-----
2024-06-13 09:12 am S 9.9 12.0----30.04- 71.6-----
2024-06-13 09:06 am S 9.9 11.1----30.03- 71.8-----
2024-06-13 09:00 am S 9.9 9.9----30.03+0.01 71.8-----
2024-06-13 08:54 am S 9.9 11.1----30.04- 72.0-----
2024-06-13 08:48 am S 9.9 9.9----30.04- 72.1-----
2024-06-13 08:42 am S 8.9 11.1----30.04- 72.3-----
2024-06-13 08:36 am S 8.0 9.9----30.04- 71.4-----
2024-06-13 08:30 am S 5.1 8.0----30.04- 72.5-----
2024-06-13 08:24 am NW 5.1 7.0----30.04- 73.2-----
2024-06-13 08:18 amWNW 5.1 6.0----30.04- 73.4-----
2024-06-13 08:12 am W 5.1 7.0----30.04- 73.2-----
2024-06-13 08:06 am W 5.1 8.0----30.04- 72.7-----
2024-06-13 08:00 amWNW 5.1 7.0----30.04+0.04 72.3-----
2024-06-13 07:54 am W 2.9 6.0----30.04- 72.9-----
2024-06-13 07:48 am NW 5.1 6.0----30.04-------
2024-06-13 07:42 am NW 2.9 6.0----30.04-------
2024-06-13 07:36 am NW 2.9 5.1----30.05-------
2024-06-13 07:30 amWNW 2.9 4.1----30.04- 74.8-----
2024-06-13 07:24 amWSW 1.0 1.9----30.04- 74.5-----
2024-06-13 07:18 am- 0.0 1.9----30.04- 73.6-----
2024-06-13 07:12 amWSW 1.9 4.1----30.04- 72.3-----
2024-06-13 07:06 amWNW 1.9 2.9----30.03- 71.6-----
2024-06-13 07:00 am NW 4.1 5.1----30.03+0.04 70.3-----
2024-06-13 06:54 amWNW 1.9 4.1----30.03- 70.3-----
2024-06-13 06:48 amWNW 1.9 2.9----30.03- 70.2-----
2024-06-13 06:42 am NW 1.9 4.1----30.03- 69.4-----
2024-06-13 06:36 am NW 4.1 5.1----30.03- 68.7-----
2024-06-13 06:30 amNNW 1.9 4.1----30.03- 68.4-----
2024-06-13 06:24 amWNW 1.9 4.1----30.02- 66.6-----
2024-06-13 06:18 am NW 2.9 5.1----30.03- 65.3-----
2024-06-13 06:12 amWNW 5.1 6.0----30.03- 64.4-----
2024-06-13 06:06 amWNW 4.1 6.0----30.03- 63.7-----
2024-06-13 06:00 amWNW 5.1 7.0----30.02+0.02 63.0-----
2024-06-13 05:54 amWNW 5.1 8.0----30.02- 62.4-----
2024-06-13 05:48 amWNW 5.1 7.0----30.02- 62.1-----
2024-06-13 05:42 amWNW 6.0 7.0----30.02- 61.9-----
2024-06-13 05:36 amWNW 5.1 7.0----30.01- 61.5-----
2024-06-13 05:30 amWNW 5.1 7.0----30.01- 61.2-----
2024-06-13 05:24 amWNW 6.0 8.0----30.01- 60.8-----
2024-06-13 05:18 amWNW 6.0 7.0----30.01- 61.0-----
2024-06-13 05:12 amWNW 5.1 7.0----30.01- 61.2-----
2024-06-13 05:06 amWNW 6.0 7.0----30.01- 61.2-----
2024-06-13 05:00 amWNW 6.0 8.0----30.00+0.00 61.2-----
2024-06-13 04:54 amWNW 6.0 8.0----30.00- 61.2-----
2024-06-13 04:48 amWNW 7.0 8.0----30.00- 61.3-----
2024-06-13 04:42 amWNW 8.0 8.9----30.00- 61.3-----
2024-06-13 04:36 amWNW 7.0 8.0----30.00- 61.2-----
2024-06-13 04:30 am W 4.1 6.0----30.00- 61.3-----
2024-06-13 04:24 am W 4.1 7.0----30.00- 61.3-----
2024-06-13 04:18 am W 4.1 7.0----30.00- 61.5-----
2024-06-13 04:12 amWNW 6.0 8.9----30.00- 61.5-----
2024-06-13 04:06 amWNW 7.0 8.9----30.00- 61.5-----
2024-06-13 04:00 amWNW 6.0 8.0----30.00+0.00 61.7-----
2024-06-13 03:54 amWNW 7.0 9.9----30.00- 61.9-----
2024-06-13 03:48 amWNW 7.0 8.9----30.00- 62.1-----
2024-06-13 03:42 amWNW 8.0 11.1----30.00- 62.1-----
2024-06-13 03:36 am W 5.1 8.0----30.00- 62.2-----
2024-06-13 03:30 am W 2.9 6.0----30.00- 61.9-----
2024-06-13 03:24 am W 5.1 6.0----30.00- 61.9-----
2024-06-13 03:18 am W 4.1 6.0----30.00- 61.9-----
2024-06-13 03:12 am W 4.1 6.0----30.00- 62.1-----
2024-06-13 03:06 am W 4.1 7.0----30.00- 62.2-----
2024-06-13 03:00 am W 5.1 8.0----30.00+0.00 62.4-----
2024-06-13 02:54 amWNW 7.0 8.9----30.00- 62.6-----
2024-06-13 02:48 amWNW 7.0 8.9----29.99-------
2024-06-13 02:42 amWNW 8.0 9.9----29.99-------
2024-06-13 02:36 amWNW 8.0 11.1----29.99-------
2024-06-13 02:30 amWNW 8.9 11.1----29.99- 62.8-----
2024-06-13 02:24 amWNW 8.9 11.1----29.99- 63.0-----
2024-06-13 02:18 amWNW 8.0 11.1----29.99- 63.3-----
2024-06-13 02:12 amWNW 8.0 11.1----29.99- 63.3-----
2024-06-13 02:06 amWNW 8.9 12.0----30.00- 63.3-----
2024-06-13 02:00 amWNW 7.0 9.9----30.00+0.00------
2024-06-13 01:54 amWNW 7.0 11.1----30.00-------
2024-06-13 01:48 am-------30.00- 63.7-----
2024-06-13 01:42 am-------30.00- 63.7-----
2024-06-13 01:36 am-------30.00- 63.9-----
2024-06-13 01:30 amWNW 8.0 11.1----30.00- 63.9-----
2024-06-13 01:24 amWNW 7.0 11.1----30.00- 63.9-----
2024-06-13 01:18 amWNW 5.1 11.1----30.00- 63.9-----
2024-06-13 01:12 amWNW 8.0 12.0----30.00- 63.9-----
2024-06-13 01:06 amWNW 9.9 11.1----30.00- 63.9-----
2024-06-13 01:00 am-------30.00- 63.9-----
2024-06-13 12:54 am-------30.00- 64.0-----
2024-06-13 12:48 amWNW 8.0 11.1----30.00- 64.0-----
2024-06-13 12:42 amWNW 9.9 11.1----30.00- 64.2-----
2024-06-13 12:36 amWNW 8.0 9.9----30.00- 64.2-----
2024-06-13 12:30 amWNW 8.0 11.1----30.00- 64.2-----
2024-06-13 12:24 amWNW 8.0 13.0----30.00- 64.4-----
2024-06-13 12:18 amWNW 8.0 12.0----30.00- 64.4-----
2024-06-13 12:12 amWNW 7.0 11.1----30.00- 64.4-----
2024-06-13 12:06 am W 8.0 11.1----30.00- 64.2-----
2024-06-13 12:00 amWNW 8.0 12.0----30.00- 64.4-----
2024-06-12 11:54 pmWNW 8.0 12.0----30.00- 64.2-----
2024-06-12 11:48 pmWNW 8.0 12.0----30.00-------
2024-06-12 11:42 pmWNW 8.0 11.1----30.00-------
2024-06-12 11:36 pmWNW 7.0 12.0----30.01-------
2024-06-12 11:30 pm W 5.1 8.9------------
2024-06-12 11:24 pm W 7.0 11.1------------
2024-06-12 11:18 pm W 7.0 12.0----30.00-------
2024-06-12 11:12 pm W 7.0 12.0----30.00-------
2024-06-12 11:06 pm W 7.0 12.0----30.00-------
2024-06-12 11:00 pm W 7.0 11.1----30.00+0.04 64.8-----
2024-06-12 10:54 pm W 8.0 13.0----30.00- 64.9-----
2024-06-12 10:48 pm W 8.0 13.0----30.00- 64.9-----
2024-06-12 10:42 pm W 8.9 14.0----30.00- 64.9-----
2024-06-12 10:36 pm W 8.0 14.0----30.00- 65.1-----
2024-06-12 10:30 pm W 8.9 12.0----30.00- 65.1-----
2024-06-12 10:24 pm W 8.0 11.1----30.00- 65.1-----
2024-06-12 10:18 pm W 7.0 12.0----30.00- 65.3-----
2024-06-12 10:12 pm W 8.0 12.0----30.00- 65.1-----
2024-06-12 10:06 pm W 8.0 13.0----30.00- 65.1-----
2024-06-12 10:00 pm W 8.9 13.0------------
2024-06-12 09:54 pm W 8.0 13.0------------
2024-06-12 09:48 pm W 7.0 12.0----29.99-------
2024-06-12 09:42 pm W 8.9 12.0----29.99-------
2024-06-12 09:36 pm W 8.9 13.0----29.99-------
2024-06-12 09:30 pm W 8.0 12.0----29.99- 65.3-----
2024-06-12 09:24 pm W 9.9 13.0----29.99- 65.3-----
2024-06-12 09:18 pm W 9.9 13.0----29.98-------
2024-06-12 09:12 pmWSW 8.9 12.0----29.98-------
2024-06-12 09:06 pm W 9.9 12.0----29.98-------
2024-06-12 09:00 pm W 8.9 15.0------------
2024-06-12 08:54 pm W 9.9 14.0------------
2024-06-12 08:48 pm W 9.9 15.0----29.98-------
2024-06-12 08:42 pm W 8.9 12.0----29.97-------
2024-06-12 08:36 pmWSW 9.9 14.0----29.97-------
2024-06-12 08:30 pm W 12.0 15.0----29.97-------
2024-06-12 08:24 pmWSW 13.0 15.9----29.97-------
2024-06-12 08:18 pmWSW 12.0 15.0----29.97- 67.1-----
2024-06-12 08:12 pmWSW 9.9 13.0----29.97- 67.3-----
2024-06-12 08:06 pmWSW 11.1 13.0----29.97- 67.3-----
2024-06-12 08:00 pm W 9.9 15.0----29.97+0.01------
2024-06-12 07:54 pmWSW 9.9 14.0----29.96-------